Regional Weather Roundup
Issued by NWS Green Bay, WI

Home | Current Version | Previous Version | Graphics & Text | Print | Product List | Glossary Off
Versions: 1 2 3 4 5 6 7 8 9 10 11 12 13 14 15 16 17 18 19 20 21 22 23 24 25 26 27 28 29 30 31 32 33 34 35 36 37 38 39 40 41 42 43 44 45 46 47 48 49 50

000
ASUS43 KGRB 211200
RWRGRB

NORTH-CENTRAL AND NORTHEAST WISCONSIN REGIONAL WEATHER ROUNDUP
NATIONAL WEATHER SERVICE GREEN BAY WI
600 AM CST SAT JAN 21 2017

WIZ005-009-010>012-018-019-211300-
NORTH CENTRAL WISCONSIN

CITY           SKY/WX    TMP DP  RH WIND       PRES   REMARKS
IRONWOOD       NOT AVBL
MANITOWISH WTR NOT AVBL
ARBOR VITAE    NOT AVBL
EAGLE RIVER    NOT AVBL
LAND O LAKES   NOT AVBL
RHINELANDER    CLOUDY    34  34 100 E8        29.54S
PHILLIPS       CLOUDY    32  32 100 E5        29.51F FOG
ANTIGO         NOT AVBL
TOMAHAWK       NOT AVBL
MERRILL        CLOUDY    33  33 100 E8          N/A  FOG
$$

WIZ013-073-211300-
NORTHEAST WISCONSIN

CITY           SKY/WX    TMP DP  RH WIND       PRES   REMARKS
IRON MOUNTAIN  FOG       32  30  92 CALM      29.58S VSB 1/4
MARINETTE      NOT AVBL
$$

WIZ017-030-035>037-045-211300-
CENTRAL WISCONSIN

CITY           SKY/WX    TMP DP  RH WIND       PRES   REMARKS
MEDFORD        NOT AVBL
WAUSAU         CLOUDY    33  33 100 SE8       29.52S FOG
MOSINEE        FOG       32  32 100 E7        29.53R VSB 1/4
MARSHFIELD     FOG       33  32  96 E12       29.48F VSB 1/4
WISC RAPIDS    CLOUDY    34  34 100 E12       29.50F FOG
STEVENS POINT  NOT AVBL
WAUPACA        NOT AVBL
SHAWANO        NOT AVBL
CLINTONVILLE   FOG       34  34 100 NE3       29.56F VSB 1/4
WAUTOMA        NOT AVBL
$$

WIZ038-039-048-051-211300-
FOX VALLEY

CITY           SKY/WX    TMP DP  RH WIND       PRES   REMARKS
NWS GREEN BAY  CLOUDY    37  37 100 E5        29.57F FOG
APPLETON         N/A     36  36 100 E7        29.53F FOG
OSHKOSH        CLOUDY    35  34  96 E7        29.53F FOG
FOND DU LAC    CLOUDY    38  35  89 E6        29.52F FOG
$$

WIZ022-050-052-211300-
EAST CENTRAL WISCONSIN

CITY           SKY/WX    TMP DP  RH WIND       PRES   REMARKS
EPHRAIM        NOT AVBL
WASHINGTON ISL NOT AVBL
STURGEON BAY   NOT AVBL
MANITOWOC      FOG       36  36 100 MISG      29.59F VSB 3/4
SHEBOYGAN      MIX PCPN  35  34  96 NE8       29.55F VSB 1/2
$$

LMZ563-521-522-541>543-211300-
LAKESHORE

STATION/POSITION TIME  TEMP    WIND        PRES    VSBY  WAVE
                       AIR SEA DIR/SP/G                  HT/PER
                 (UTC) (F)     (DEG/KT/KT) (MB)    (MI)  (FT/S)
SHEBOYGAN LKSHOR 1100   36      20/  4/  5 1001.7F
KEWAUNEE LKSHORE 1130   36      80/  2/  5 1001.9S
NORTHPORT PIER   1140   34     150/  5/  7 1003.7R
SISTER BAY LKSHO 1120   35     150/  1/  6   N/A
$$



USA.gov is the U.S. government's official web portal to all federal, state and local government web resources and services.